Regional Weather Roundup
Issued by NWS Memphis, TN

Home | Current Version | Previous Version | Text Only | Print | Product List | Glossary On
Versions: 1 2 3 4 5 6 7 8 9 10 11 12 13 14 15 16 17 18 19 20 21 22 23 24 25 26 27 28 29 30 31 32 33 34 35 36 37 38 39 40 41 42 43 44 45 46 47 48 49 50
000
ASUS44 KMEG 120000
RWRMEG
MEMPHIS CWA HOURLY WEATHER ROUNDUP
NATIONAL WEATHER SERVICE MEMPHIS TN
600 PM CST THU FEB 11 2016

...WEST TENNESSEE...

CITY           SKY/WX    TMP DP  RH WIND       PRES   REMARKS
MEMPHIS INTL   MOCLDY    46  24  42 NE12      30.21R
6HR MIN TEMP:  46; 6HR MAX TEMP:  54;

NWS MEMPHIS      N/A     44 N/A N/A MISG        N/A
JACKSON        CLEAR     41  23  48 NE10      30.23R
6HR MIN TEMP:  40; 6HR MAX TEMP:  50;

LEXINGTON      CLEAR     39  19  45 N7        30.23R WCI  34
DYERSBURG      CLEAR     39  23  52 NE7       30.27R WCI  34
6HR MIN TEMP:  39; 6HR MAX TEMP:  43;

UNION CITY     CLEAR     36  25  64 NE8       30.26R WCI  29
PARIS          CLEAR     34  21  60 NE7       30.26R WCI  28


...EASTERN ARKANSAS...

CITY           SKY/WX    TMP DP  RH WIND       PRES   REMARKS
JONESBORO      PTCLDY    39  25  57 NE10      30.25R WCI  32
6HR MIN TEMP:  39; 6HR MAX TEMP:  43;

WEST MEMPHIS   CLEAR     44  26  49 NE9       30.21R
6HR MIN TEMP:  44; 6HR MAX TEMP:  51;

BATESVILLE     MOCLDY    43  21  42 E9        30.26R
6HR MIN TEMP:  43; 6HR MAX TEMP:  48;

WALNUT RIDGE   CLOUDY    39  21  48 E10       30.28R WCI  32
6HR MIN TEMP:  39; 6HR MAX TEMP:  45;

BLYTHEVILLE    CLEAR     39  26  59 NE10      30.26R WCI  32
6HR MIN TEMP:  39; 6HR MAX TEMP:  49;

SEARCY         PTCLDY    44  26  49 NE12      30.24S
6HR MIN TEMP:  44; 6HR MAX TEMP:  50;

STUTTGART      CLEAR     43  27  52 N9        30.21R
6HR MIN TEMP:  43; 6HR MAX TEMP:  52;

PINE BLUFF     CLEAR     46  30  53 N9        30.19R
6HR MIN TEMP:  46; 6HR MAX TEMP:  53;

MONTICELLO     CLEAR     52  32  46 N3        30.16R
6HR MIN TEMP:  52; 6HR MAX TEMP:  60;



...NORTH MISSISSIPPI...

CITY           SKY/WX    TMP DP  RH WIND       PRES   REMARKS
TUPELO         CLEAR     47  27  45 N8        30.16R
6HR MIN TEMP:  46; 6HR MAX TEMP:  57;

OLIVE BRANCH   MOCLDY    43  27  52 N7        30.19R
TUNICA         CLEAR     43  27  52 N8        30.19R
GREENWOOD      CLEAR     58  39  49 CALM      30.13R
6HR MIN TEMP:  58; 6HR MAX TEMP:  65;

COLUMBUS       CLEAR     55  37  51 N2        30.13R
6HR MIN TEMP:  55; 6HR MAX TEMP:  61;

STARKVILLE       N/A     52  36  54 CALM      30.14R
GOLDEN TRIANGL CLEAR     54  36  50 N5        30.13R


...SOUTHEAST MISSOURI...

CITY           SKY/WX    TMP DP  RH WIND       PRES   REMARKS
WEST PLAINS    CLOUDY    43  18  36 SE5       30.20F
6HR MIN TEMP:  39; 6HR MAX TEMP:  46;

POPLAR BLUFF   CLOUDY    36  23  59 NE8       30.28R WCI  30
6HR MIN TEMP:  36; 6HR MAX TEMP:  41;

CAPE GIRARDEAU PTCLDY    34  21  59 NE9       30.30R WCI  27
6HR MIN TEMP:  33; 6HR MAX TEMP:  39;



...NORTHWEST ALABAMA...

CITY           SKY/WX    TMP DP  RH WIND       PRES   REMARKS
MUSCLE SHOALS  CLEAR     45  24  43 E5        30.20R
6HR MIN TEMP:  45; 6HR MAX TEMP:  53;



...MIDDLE TENNESSEE...

CITY           SKY/WX    TMP DP  RH WIND       PRES   REMARKS
NASHVILLE      PTCLDY    36  21  54 N9        30.27R WCI  29
6HR MIN TEMP:  36; 6HR MAX TEMP:  44;

CLARKSVILLE    CLEAR     33  23  66 N7        30.27S WCI  27
6HR MIN TEMP:  33; 6HR MAX TEMP:  40;

COLUMBIA       CLEAR     39  27  60 NE5       30.22R


...WESTERN KENTUCKY...

CITY           SKY/WX    TMP DP  RH WIND       PRES   REMARKS
PADUCAH        CLOUDY    34  19  54 NE5       30.30R WCI  30
6HR MIN TEMP:  34; 6HR MAX TEMP:  39;

FORT CAMPBELL  CLEAR     32  23  69 N8        30.27R WCI  25
6HR MIN TEMP:  32; 6HR MAX TEMP:  37;



...CENTRAL ARKANSAS...

CITY           SKY/WX    TMP DP  RH WIND       PRES   REMARKS
LITTLE ROCK    MOCLDY    45  25  45 E9        30.21R
6HR MIN TEMP:  45; 6HR MAX TEMP:  54;



SKY/WX REPORTED AS FAIR MEANS FEW OR NO CLOUDS BELOW
12 THOUSAND FEET.




USA.gov is the U.S. government's official web portal to all federal, state and local government web resources and services.